Location: Cedar Brake
(32.2526°N, 97.8459°W)
Time: 20:01:24
(UTC+00:00)

Cosmos 1386 Rocket - Pass Details

Date: 22 April 2026
Orbit: 929 x 1004 km, 83.0° (Epoch: 21 May)

Event Time Altitude Azimuth Distance (km) Brightness Sun altitude
Rises 10:49:04 0° 349° (N) 3,626 7.7 -13.8°
Reaches altitude 10° 10:51:34 10° 347° (NNW) 2,688 6.9 -13.3°
Maximum altitude 10:57:37 63° 268° (W) 1,075 4.5 -12.1°
Drops below altitude 10° 11:03:46 10° 188° (S) 2,725 6.6 -10.9°
Sets 11:06:19 0° 185° (S) 3,680 7.2 -10.4°
